Location: Bonnesvalyn
(49.1218°N, 3.3177°E)
Time: 06:52:18
(UTC+00:00)

Cosmos 2237 Rocket - Pass Details

Date: 09 February 2023
Orbit: 835 x 849 km, 71.0° (Epoch: 30 March)

Event Time Altitude Azimuth Distance (km) Brightness Sun altitude
Rises 18:25:22 0° 173° (S) 3,395 5.3 -14.9°
Reaches altitude 10° 18:28:05 10° 163° (SSE) 2,466 4.5 -15.4°
Maximum altitude 18:32:53 29° 104° (ESE) 1,501 3.0 -16.2°
Enters shadow 18:34:26 26° 77° (ENE) 1,631 3.1 -16.4°
